TimeEDT,TemperatureF,Dew PointF,Humidity,Sea Level PressureIn,VisibilityMPH,Wind Direction,Wind SpeedMPH,Gust SpeedMPH,PrecipitationIn,Events,Conditions,WindDirDegrees,DateUTC
12:52 AM,42.1,37.9,85,30.07,10.0,Calm,Calm,-,N/A,,Clear,0,2012-10-23 04:52:00
3:52 AM,37.9,36.0,93,30.09,9.0,Calm,Calm,-,N/A,,Clear,0,2012-10-23 07:52:00
4:52 AM,37.9,36.0,93,30.10,9.0,Calm,Calm,-,N/A,,Clear,0,2012-10-23 08:52:00
5:52 AM,37.0,36.0,96,30.12,7.0,Calm,Calm,-,N/A,,Clear,0,2012-10-23 09:52:00
6:52 AM,37.0,35.1,93,30.13,7.0,Calm,Calm,-,N/A,,Clear,0,2012-10-23 10:52:00
7:52 AM,37.9,36.0,93,30.14,5.0,Calm,Calm,-,N/A,,Clear,0,2012-10-23 11:52:00
8:52 AM,41.0,39.0,93,30.16,7.0,Calm,Calm,-,N/A,,Clear,0,2012-10-23 12:52:00
9:52 AM,46.0,41.0,83,30.16,10.0,Calm,Calm,-,N/A,,Clear,0,2012-10-23 13:52:00
11:52 AM,54.0,41.0,62,30.13,10.0,Calm,Calm,-,N/A,,Mostly Cloudy,0,2012-10-23 15:52:00
12:52 PM,57.0,39.9,53,30.10,10.0,Variable,3.5,-,N/A,,Partly Cloudy,0,2012-10-23 16:52:00
1:52 PM,57.9,41.0,53,30.08,10.0,NW,3.5,-,N/A,,Clear,310,2012-10-23 17:52:00
2:52 PM,59.0,41.0,51,30.07,10.0,Calm,Calm,-,N/A,,Scattered Clouds,0,2012-10-23 18:52:00
3:52 PM,60.1,42.1,51,30.07,10.0,Calm,Calm,-,N/A,,Partly Cloudy,0,2012-10-23 19:52:00
4:52 PM,57.9,41.0,53,30.07,10.0,WNW,3.5,-,N/A,,Overcast,300,2012-10-23 20:52:00
5:52 PM,55.9,42.1,60,30.08,10.0,West,3.5,-,N/A,,Overcast,280,2012-10-23 21:52:00
6:52 PM,55.0,42.1,62,30.10,10.0,Calm,Calm,-,N/A,,Overcast,0,2012-10-23 22:52:00
7:52 PM,54.0,42.1,64,30.10,10.0,West,4.6,-,N/A,,Overcast,270,2012-10-23 23:52:00
8:52 PM,54.0,43.0,66,30.12,10.0,WSW,5.8,-,N/A,,Overcast,240,2012-10-24 00:52:00
9:52 PM,53.1,43.0,69,30.12,10.0,SW,4.6,-,0.00,,Overcast,230,2012-10-24 01:52:00
10:52 PM,53.1,45.0,74,30.13,10.0,SW,3.5,-,N/A,,Overcast,220,2012-10-24 02:52:00
11:52 PM,53.1,44.1,71,30.12,10.0,Calm,Calm,-,N/A,,Overcast,0,2012-10-24 03:52:00